Retour au catalogue

STARLINK-2478

ActifCommunicationsVLEO
NORAD 48135·PAYLOAD·🇺🇸 United States

Lancé Apr 7, 2021 depuis Cape Canaveral Space Force Station

Loading…

Prochains Passages (prochaines 24 heures)

TLE

FraisSource: CelesTrak SupGP

Époque: Sep 15, 2026, 01:28 UTC

1 48135C 21027AV  26258.06159722  .00005580  00000+0  17933-3 0  2589
2 48135  53.1599   6.6680 0000935  99.0344 275.2332 15.31718209    19

Suivez STARLINK-2478 en temps réel avec AllMySat

Download on the App Store